Check out our new BloomSky Weather System.

Active alerts


No alerts


Thunder radar  blitzortung!


Rain radar more information rain snow radar


Visit our other weather sites:

Template documentation
and downloads

And another site



Weather Underground History page Text

Daily Summary for April 23, 2017 Units:  English    Metric   Both
« Previous Day
Next Day »
Daily Weekly Monthly Yearly Custom
  High: Low: Average:
Temperature: 72.0 °F 52.3 °F 62.1 °F
Dew Point: 53.6 °F 45.0 °F 49.4 °F
Humidity: 84 % 47 % 64 %
Wind Speed: 13.0 mph 0.0 mph 4.2 mph
Wind Gust: 22.0 mph - -
Wind:- - WNW
Pressure: 30.10 in 29.96 in -
Precipitation: 0.00 in    
Historical Graphs
 
 
Tabular Data for April 23, 2017
Time Temperature Dew Point Pressure Wind Wind Speed Wind Gust Humidity Rainfall Rate (Hourly)
00:01 60.3 °F 50.4 °F 30.07 in North 4.0 mph 22.0 mph 70 % 0.00 in
00:06 60.3 °F 50.4 °F 30.06 in WNW 2.0 mph 17.0 mph 70 % 0.00 in
00:11 60.1 °F 49.8 °F 30.07 in NW 2.0 mph 15.0 mph 69 % 0.00 in
00:16 60.1 °F 49.8 °F 30.06 in NW 4.0 mph 12.0 mph 69 % 0.00 in
00:18 60.1 °F 49.8 °F 30.07 in WNW 5.0 mph 12.0 mph 69 % 0.00 in
00:23 60.1 °F 49.8 °F 30.07 in NW 4.0 mph 14.0 mph 69 % 0.00 in
00:28 60.1 °F 49.5 °F 30.07 in West 4.0 mph 14.0 mph 68 % 0.00 in
00:33 59.9 °F 49.3 °F 30.07 in NNW 3.0 mph 14.0 mph 68 % 0.00 in
00:38 59.7 °F 49.1 °F 30.07 in NNW 6.0 mph 14.0 mph 68 % 0.00 in
00:43 59.7 °F 49.1 °F 30.07 in WSW 4.0 mph 14.0 mph 68 % 0.00 in
00:48 59.7 °F 49.1 °F 30.07 in NNW 3.0 mph 13.0 mph 68 % 0.00 in
00:53 59.7 °F 48.7 °F 30.07 in NW 4.0 mph 13.0 mph 67 % 0.00 in
00:58 59.5 °F 48.6 °F 30.07 in NNW 5.0 mph 13.0 mph 67 % 0.00 in
01:03 59.4 °F 48.4 °F 30.07 in NNW 7.0 mph 14.0 mph 67 % 0.00 in
01:08 59.4 °F 48.4 °F 30.07 in WNW 5.0 mph 14.0 mph 67 % 0.00 in
01:13 59.2 °F 48.2 °F 30.07 in NW 9.0 mph 14.0 mph 67 % 0.00 in
01:18 59.2 °F 48.2 °F 30.06 in NW 5.0 mph 12.0 mph 67 % 0.00 in
01:23 59.0 °F 48.0 °F 30.06 in NW 9.0 mph 14.0 mph 67 % 0.00 in
01:28 59.0 °F 48.4 °F 30.06 in NW 4.0 mph 14.0 mph 68 % 0.00 in
01:33 58.8 °F 48.2 °F 30.06 in WNW 8.0 mph 15.0 mph 68 % 0.00 in
01:38 58.8 °F 48.2 °F 30.07 in NW 4.0 mph 15.0 mph 68 % 0.00 in
01:43 58.6 °F 47.7 °F 30.06 in NNW 7.0 mph 15.0 mph 67 % 0.00 in
01:48 58.5 °F 47.1 °F 30.06 in WNW 6.0 mph 12.0 mph 66 % 0.00 in
01:53 58.3 °F 47.3 °F 30.06 in NNW 7.0 mph 12.0 mph 67 % 0.00 in
01:58 58.1 °F 47.1 °F 30.06 in NW 8.0 mph 12.0 mph 67 % 0.00 in
02:03 57.9 °F 47.5 °F 30.06 in NW 2.0 mph 12.0 mph 68 % 0.00 in
02:08 57.7 °F 47.3 °F 30.06 in NNW 6.0 mph 10.0 mph 68 % 0.00 in
02:13 57.6 °F 47.1 °F 30.07 in NW 6.0 mph 15.0 mph 68 % 0.00 in
02:18 57.4 °F 46.9 °F 30.06 in WNW 4.0 mph 15.0 mph 68 % 0.00 in
02:23 57.4 °F 46.9 °F 30.06 in NW 6.0 mph 15.0 mph 68 % 0.00 in
02:29 57.2 °F 47.1 °F 30.06 in WNW 2.0 mph 15.0 mph 69 % 0.00 in
02:34 57.0 °F 46.9 °F 30.06 in NNW 8.0 mph 15.0 mph 69 % 0.00 in
02:39 57.0 °F 46.9 °F 30.06 in NW 5.0 mph 11.0 mph 69 % 0.00 in
02:44 56.8 °F 46.8 °F 30.06 in NW 6.0 mph 13.0 mph 69 % 0.00 in
02:49 56.8 °F 46.4 °F 30.05 in NNW 5.0 mph 13.0 mph 68 % 0.00 in
02:54 56.8 °F 46.8 °F 30.05 in NW 5.0 mph 13.0 mph 69 % 0.00 in
02:59 56.7 °F 46.6 °F 30.05 in NNW 6.0 mph 11.0 mph 69 % 0.00 in
03:04 56.7 °F 46.6 °F 30.05 in NNW 3.0 mph 11.0 mph 69 % 0.00 in
03:09 56.5 °F 46.4 °F 30.05 in NW 3.0 mph 11.0 mph 69 % 0.00 in
03:14 56.5 °F 46.4 °F 30.05 in NW 4.0 mph 10.0 mph 69 % 0.00 in
03:19 56.5 °F 46.4 °F 30.05 in NNW 2.0 mph 9.0 mph 69 % 0.00 in
03:24 56.5 °F 46.8 °F 30.05 in NW 2.0 mph 7.0 mph 70 % 0.00 in
03:29 56.3 °F 46.6 °F 30.05 in NW 2.0 mph 7.0 mph 70 % 0.00 in
03:34 56.3 °F 46.9 °F 30.05 in NNW 2.0 mph 7.0 mph 71 % 0.00 in
03:39 56.1 °F 47.3 °F 30.05 in NW 3.0 mph 5.0 mph 72 % 0.00 in
03:44 56.1 °F 46.8 °F 30.05 in NW 4.0 mph 5.0 mph 71 % 0.00 in
03:49 56.1 °F 46.8 °F 30.05 in NNW 4.0 mph 9.0 mph 71 % 0.00 in
03:54 55.9 °F 46.2 °F 30.05 in NW 5.0 mph 9.0 mph 70 % 0.00 in
03:59 55.9 °F 45.9 °F 30.05 in NW 4.0 mph 12.0 mph 69 % 0.00 in
04:04 55.9 °F 45.9 °F 30.05 in NW 6.0 mph 12.0 mph 69 % 0.00 in
04:09 55.8 °F 45.3 °F 30.06 in NW 13.0 mph 13.0 mph 68 % 0.00 in
04:14 55.8 °F 45.3 °F 30.06 in NNW 4.0 mph 15.0 mph 68 % 0.00 in
04:19 55.6 °F 45.5 °F 30.05 in NW 4.0 mph 15.0 mph 69 % 0.00 in
04:24 55.2 °F 45.1 °F 30.05 in NW 5.0 mph 15.0 mph 69 % 0.00 in
04:29 55.2 °F 45.1 °F 30.05 in NW 6.0 mph 15.0 mph 69 % 0.00 in
04:34 55.0 °F 45.1 °F 30.06 in NNW 6.0 mph 16.0 mph 69 % 0.00 in
04:39 54.9 °F 45.3 °F 30.06 in NNW 9.0 mph 16.0 mph 70 % 0.00 in
04:44 54.9 °F 45.3 °F 30.06 in WNW 6.0 mph 18.0 mph 70 % 0.00 in
04:49 54.7 °F 45.1 °F 30.06 in WNW 5.0 mph 18.0 mph 70 % 0.00 in
04:54 54.5 °F 45.3 °F 30.06 in NNW 7.0 mph 18.0 mph 71 % 0.00 in
04:59 54.3 °F 45.5 °F 30.06 in NW 6.0 mph 12.0 mph 72 % 0.00 in
05:04 54.3 °F 45.5 °F 30.06 in NNW 3.0 mph 9.0 mph 72 % 0.00 in
05:09 54.3 °F 45.5 °F 30.06 in NW 4.0 mph 8.0 mph 72 % 0.00 in
05:14 54.5 °F 45.7 °F 30.06 in NW 5.0 mph 12.0 mph 72 % 0.00 in
05:19 54.7 °F 45.5 °F 30.06 in NW 12.0 mph 12.0 mph 71 % 0.00 in
05:24 54.9 °F 45.3 °F 30.06 in NNW 7.0 mph 15.0 mph 70 % 0.00 in
05:29 54.9 °F 45.7 °F 30.06 in NNW 7.0 mph 15.0 mph 71 % 0.00 in
05:34 54.9 °F 45.3 °F 30.06 in NW 6.0 mph 15.0 mph 70 % 0.00 in
05:39 54.9 °F 45.3 °F 30.06 in NW 4.0 mph 12.0 mph 70 % 0.00 in
05:44 54.7 °F 45.1 °F 30.06 in NW 4.0 mph 14.0 mph 70 % 0.00 in
05:49 54.5 °F 45.3 °F 30.06 in NW 4.0 mph 14.0 mph 71 % 0.00 in
05:54 54.3 °F 45.1 °F 30.06 in WNW 4.0 mph 14.0 mph 71 % 0.00 in
05:59 54.1 °F 45.0 °F 30.06 in NW 7.0 mph 10.0 mph 71 % 0.00 in
06:04 54.1 °F 45.0 °F 30.06 in NNE 3.0 mph 11.0 mph 71 % 0.00 in
06:09 54.0 °F 45.1 °F 30.06 in NNW 5.0 mph 14.0 mph 72 % 0.00 in
06:14 53.8 °F 45.0 °F 30.06 in NW 4.0 mph 14.0 mph 72 % 0.00 in
06:19 53.6 °F 45.1 °F 30.06 in North 10.0 mph 14.0 mph 73 % 0.00 in
06:24 53.4 °F 45.0 °F 30.06 in NNW 2.0 mph 10.0 mph 73 % 0.00 in
06:29 53.2 °F 45.1 °F 30.07 in NW 1.0 mph 10.0 mph 74 % 0.00 in
06:34 53.2 °F 45.1 °F 30.07 in NW 2.0 mph 10.0 mph 74 % 0.00 in
06:39 53.1 °F 45.3 °F 30.07 in Calm   7.0 mph 75 % 0.00 in
06:44 52.9 °F 45.5 °F 30.07 in Calm   6.0 mph 76 % 0.00 in
06:49 52.5 °F 45.5 °F 30.07 in NW 1.0 mph 5.0 mph 77 % 0.00 in
06:54 52.5 °F 45.9 °F 30.07 in NW 1.0 mph 5.0 mph 78 % 0.00 in
06:59 52.5 °F 45.9 °F 30.07 in NW 1.0 mph 5.0 mph 78 % 0.00 in
07:04 52.3 °F 46.0 °F 30.07 in NW 3.0 mph 5.0 mph 79 % 0.00 in
07:09 52.3 °F 46.0 °F 30.08 in Calm   4.0 mph 79 % 0.00 in
07:14 52.3 °F 46.4 °F 30.08 in WNW 1.0 mph 4.0 mph 80 % 0.00 in
07:19 52.3 °F 46.4 °F 30.08 in NW 1.0 mph 4.0 mph 80 % 0.00 in
07:24 52.5 °F 46.6 °F 30.08 in NW 2.0 mph 3.0 mph 80 % 0.00 in
07:29 52.5 °F 46.6 °F 30.08 in NNW 2.0 mph 3.0 mph 80 % 0.00 in
07:35 52.9 °F 46.6 °F 30.08 in NNW 1.0 mph 4.0 mph 79 % 0.00 in
07:40 53.4 °F 47.1 °F 30.09 in WNW 1.0 mph 5.0 mph 79 % 0.00 in
07:50 54.1 °F 47.1 °F 30.09 in NW 2.0 mph 6.0 mph 77 % 0.00 in
07:55 54.3 °F 47.3 °F 30.09 in NW 2.0 mph 6.0 mph 77 % 0.00 in
08:00 54.7 °F 47.3 °F 30.09 in NW 3.0 mph 6.0 mph 76 % 0.00 in
08:05 54.9 °F 47.8 °F 30.09 in NW 2.0 mph 7.0 mph 77 % 0.00 in
08:10 55.2 °F 47.8 °F 30.09 in NNW 2.0 mph 7.0 mph 76 % 0.00 in
08:15 55.6 °F 48.2 °F 30.09 in NW 3.0 mph 7.0 mph 76 % 0.00 in
08:20 55.8 °F 48.0 °F 30.09 in NNW 4.0 mph 6.0 mph 75 % 0.00 in
08:25 55.9 °F 48.2 °F 30.09 in NW 3.0 mph 7.0 mph 75 % 0.00 in
08:30 56.3 °F 48.6 °F 30.09 in NNE 2.0 mph 7.0 mph 75 % 0.00 in
08:35 56.8 °F 48.6 °F 30.09 in NNW 4.0 mph 7.0 mph 74 % 0.00 in
08:40 57.2 °F 48.9 °F 30.09 in NNW 3.0 mph 8.0 mph 74 % 0.00 in
08:45 57.4 °F 48.7 °F 30.10 in NW 5.0 mph 10.0 mph 73 % 0.00 in
08:50 57.7 °F 49.5 °F 30.09 in NW 2.0 mph 10.0 mph 74 % 0.00 in
08:55 58.3 °F 48.9 °F 30.09 in NNW 6.0 mph 10.0 mph 71 % 0.00 in
09:00 58.5 °F 48.7 °F 30.09 in NW 8.0 mph 13.0 mph 70 % 0.00 in
09:05 58.5 °F 48.4 °F 30.09 in NNW 6.0 mph 13.0 mph 69 % 0.00 in
09:10 58.5 °F 48.0 °F 30.09 in WSW 3.0 mph 13.0 mph 68 % 0.00 in
09:15 58.6 °F 48.2 °F 30.09 in WNW 4.0 mph 13.0 mph 68 % 0.00 in
09:20 58.8 °F 48.2 °F 30.10 in North 7.0 mph 13.0 mph 68 % 0.00 in
09:25 59.4 °F 48.4 °F 30.10 in NW 5.0 mph 10.0 mph 67 % 0.00 in
09:30 59.2 °F 48.2 °F 30.10 in North 5.0 mph 11.0 mph 67 % 0.00 in
09:35 59.4 °F 48.0 °F 30.10 in North 9.0 mph 12.0 mph 66 % 0.00 in
09:40 59.4 °F 48.0 °F 30.10 in NW 8.0 mph 12.0 mph 66 % 0.00 in
09:45 59.5 °F 48.2 °F 30.10 in WNW 6.0 mph 14.0 mph 66 % 0.00 in
09:50 60.1 °F 48.2 °F 30.09 in NW 6.0 mph 15.0 mph 65 % 0.00 in
10:00 60.4 °F 48.2 °F 30.10 in WSW 2.0 mph 15.0 mph 64 % 0.00 in
10:05 60.8 °F 48.9 °F 30.10 in NW 7.0 mph 15.0 mph 65 % 0.00 in
10:11 60.8 °F 48.2 °F 30.10 in NW 4.0 mph 15.0 mph 63 % 0.00 in
10:16 61.2 °F 49.3 °F 30.10 in NNW 7.0 mph 13.0 mph 65 % 0.00 in
10:21 61.2 °F 48.0 °F 30.10 in WNW 6.0 mph 14.0 mph 62 % 0.00 in
10:23 61.2 °F 48.4 °F 30.10 in NW 8.0 mph 14.0 mph 63 % 0.00 in
10:28 61.2 °F 48.0 °F 30.10 in NW 4.0 mph 14.0 mph 62 % 0.00 in
10:33 61.5 °F 48.7 °F 30.10 in North 4.0 mph 14.0 mph 63 % 0.00 in
10:38 61.9 °F 48.7 °F 30.10 in North 9.0 mph 13.0 mph 62 % 0.00 in
10:43 62.1 °F 48.9 °F 30.10 in NNW 11.0 mph 12.0 mph 62 % 0.00 in
10:48 62.4 °F 49.3 °F 30.10 in NW 5.0 mph 14.0 mph 62 % 0.00 in
10:53 62.6 °F 48.9 °F 30.10 in NNE 11.0 mph 14.0 mph 61 % 0.00 in
10:58 62.8 °F 49.6 °F 30.10 in NNW 2.0 mph 15.0 mph 62 % 0.00 in
11:03 63.1 °F 49.5 °F 30.10 in NW 4.0 mph 15.0 mph 61 % 0.00 in
11:08 63.3 °F 50.0 °F 30.10 in North 8.0 mph 15.0 mph 62 % 0.00 in
11:13 63.7 °F 50.0 °F 30.10 in NW 5.0 mph 14.0 mph 61 % 0.00 in
11:18 63.7 °F 49.5 °F 30.10 in NNW 5.0 mph 12.0 mph 60 % 0.00 in
11:23 63.5 °F 49.8 °F 30.09 in NW 5.0 mph 12.0 mph 61 % 0.00 in
11:28 63.0 °F 49.3 °F 30.10 in North 6.0 mph 12.0 mph 61 % 0.00 in
11:33 63.3 °F 50.0 °F 30.10 in NW 7.0 mph 12.0 mph 62 % 0.00 in
11:38 63.9 °F 50.2 °F 30.09 in NNW 2.0 mph 12.0 mph 61 % 0.00 in
11:43 64.0 °F 50.4 °F 30.09 in NNW 4.0 mph 12.0 mph 61 % 0.00 in
11:48 64.0 °F 49.5 °F 30.09 in NNW 3.0 mph 12.0 mph 59 % 0.00 in
11:53 64.0 °F 49.5 °F 30.09 in NW 10.0 mph 14.0 mph 59 % 0.00 in
11:58 64.0 °F 49.5 °F 30.09 in NNW 4.0 mph 18.0 mph 59 % 0.00 in
12:03 64.4 °F 49.8 °F 30.09 in NW 8.0 mph 18.0 mph 59 % 0.00 in
12:08 64.6 °F 49.5 °F 30.09 in NNW 8.0 mph 18.0 mph 58 % 0.00 in
12:13 64.9 °F 50.2 °F 30.09 in NW 8.0 mph 16.0 mph 59 % 0.00 in
12:18 65.1 °F 50.9 °F 30.09 in NNW 12.0 mph 16.0 mph 60 % 0.00 in
12:23 65.1 °F 50.9 °F 30.08 in NNW 6.0 mph 14.0 mph 60 % 0.00 in
12:28 65.5 °F 51.3 °F 30.08 in NW 4.0 mph 13.0 mph 60 % 0.00 in
12:33 66.0 °F 51.3 °F 30.07 in NNW 5.0 mph 14.0 mph 59 % 0.00 in
12:38 65.8 °F 50.7 °F 30.07 in NNW 4.0 mph 14.0 mph 58 % 0.00 in
12:43 66.6 °F 52.2 °F 30.07 in NW 6.0 mph 14.0 mph 60 % 0.00 in
12:48 66.0 °F 51.3 °F 30.07 in NNW 5.0 mph 16.0 mph 59 % 0.00 in
12:53 66.4 °F 51.1 °F 30.07 in NNW 5.0 mph 16.0 mph 58 % 0.00 in
12:58 66.4 °F 51.1 °F 30.06 in North 6.0 mph 16.0 mph 58 % 0.00 in
13:03 66.0 °F 50.9 °F 30.06 in NNW 3.0 mph 14.0 mph 58 % 0.00 in
13:08 66.4 °F 51.6 °F 30.06 in NNW 11.0 mph 15.0 mph 59 % 0.00 in
13:13 66.6 °F 51.3 °F 30.06 in NW 6.0 mph 15.0 mph 58 % 0.00 in
13:18 66.6 °F 51.3 °F 30.06 in North 7.0 mph 15.0 mph 58 % 0.00 in
13:23 66.7 °F 51.4 °F 30.06 in NW 6.0 mph 15.0 mph 58 % 0.00 in
13:28 66.9 °F 52.2 °F 30.05 in NNE 5.0 mph 15.0 mph 59 % 0.00 in
13:33 67.5 °F 51.6 °F 30.05 in NNW 8.0 mph 14.0 mph 57 % 0.00 in
13:38 68.2 °F 51.8 °F 30.05 in WNW 7.0 mph 14.0 mph 56 % 0.00 in
13:43 67.6 °F 51.4 °F 30.05 in NNW 9.0 mph 13.0 mph 56 % 0.00 in
13:48 67.8 °F 52.5 °F 30.05 in North 12.0 mph 13.0 mph 58 % 0.00 in
13:53 67.6 °F 51.8 °F 30.05 in West 4.0 mph 13.0 mph 57 % 0.00 in
13:58 67.6 °F 52.3 °F 30.05 in NW 6.0 mph 17.0 mph 58 % 0.00 in
14:03 67.8 °F 51.6 °F 30.05 in NNW 7.0 mph 17.0 mph 56 % 0.00 in
14:08 68.4 °F 52.5 °F 30.04 in NNW 4.0 mph 17.0 mph 57 % 0.00 in
14:13 68.5 °F 51.8 °F 30.05 in NW 2.0 mph 14.0 mph 55 % 0.00 in
14:18 68.4 °F 52.5 °F 30.04 in NNW 2.0 mph 14.0 mph 57 % 0.00 in
14:23 68.4 °F 51.6 °F 30.04 in NNW 3.0 mph 11.0 mph 55 % 0.00 in
14:28 68.9 °F 53.1 °F 30.03 in NW 9.0 mph 11.0 mph 57 % 0.00 in
14:33 69.1 °F 52.7 °F 30.03 in NW 5.0 mph 14.0 mph 56 % 0.00 in
14:38 69.6 °F 53.2 °F 30.03 in NNW 7.0 mph 14.0 mph 56 % 0.00 in
14:43 70.0 °F 53.1 °F 30.03 in NW 3.0 mph 14.0 mph 55 % 0.00 in
14:48 69.8 °F 52.3 °F 30.03 in NW 6.0 mph 12.0 mph 54 % 0.00 in
14:53 69.3 °F 52.3 °F 30.02 in NW 8.0 mph 12.0 mph 55 % 0.00 in
14:58 69.1 °F 52.7 °F 30.02 in NNW 2.0 mph 12.0 mph 56 % 0.00 in
15:03 69.4 °F 53.1 °F 30.02 in NNW 6.0 mph 12.0 mph 56 % 0.00 in
15:08 69.6 °F 52.7 °F 30.02 in NW 4.0 mph 12.0 mph 55 % 0.00 in
15:13 70.2 °F 52.7 °F 30.02 in North 5.0 mph 12.0 mph 54 % 0.00 in
15:18 70.0 °F 51.6 °F 30.01 in NNE 6.0 mph 12.0 mph 52 % 0.00 in
15:23 70.2 °F 52.2 °F 30.01 in North 9.0 mph 13.0 mph 53 % 0.00 in
15:28 70.3 °F 52.3 °F 30.01 in North 8.0 mph 13.0 mph 53 % 0.00 in
15:33 70.2 °F 53.2 °F 30.01 in WNW 6.0 mph 13.0 mph 55 % 0.00 in
15:38 70.2 °F 52.7 °F 30.01 in West 9.0 mph 13.0 mph 54 % 0.00 in
15:43 70.5 °F 53.6 °F 30.01 in West 8.0 mph 13.0 mph 55 % 0.00 in
15:49 70.5 °F 52.5 °F 30.00 in NW 3.0 mph 13.0 mph 53 % 0.00 in
15:54 71.1 °F 53.1 °F 30.00 in NW 6.0 mph 13.0 mph 53 % 0.00 in
15:59 70.3 °F 52.9 °F 30.00 in NNW 7.0 mph 13.0 mph 54 % 0.00 in
16:04 70.3 °F 51.8 °F 30.00 in North 5.0 mph 13.0 mph 52 % 0.00 in
16:09 70.7 °F 52.7 °F 29.99 in NW 4.0 mph 12.0 mph 53 % 0.00 in
16:14 71.1 °F 53.1 °F 29.99 in NNW 11.0 mph 12.0 mph 53 % 0.00 in
16:19 71.1 °F 52.0 °F 29.99 in NNW 3.0 mph 12.0 mph 51 % 0.00 in
16:24 71.1 °F 53.1 °F 29.99 in WNW 5.0 mph 12.0 mph 53 % 0.00 in
16:29 71.1 °F 52.5 °F 29.99 in NNW 4.0 mph 11.0 mph 52 % 0.00 in
16:34 71.1 °F 52.0 °F 29.99 in NNW 6.0 mph 11.0 mph 51 % 0.00 in
16:40 71.1 °F 52.0 °F 29.99 in NW 5.0 mph 14.0 mph 51 % 0.00 in
16:45 71.2 °F 52.2 °F 29.98 in NW 7.0 mph 14.0 mph 51 % 0.00 in
16:50 71.4 °F 51.8 °F 29.98 in NNW 5.0 mph 14.0 mph 50 % 0.00 in
16:55 71.4 °F 52.3 °F 29.98 in NW 2.0 mph 14.0 mph 51 % 0.00 in
17:00 71.6 °F 52.0 °F 29.98 in NW 5.0 mph 14.0 mph 50 % 0.00 in
17:05 71.8 °F 51.6 °F 29.97 in WNW 4.0 mph 14.0 mph 49 % 0.00 in
17:10 71.8 °F 51.6 °F 29.97 in North 5.0 mph 10.0 mph 49 % 0.00 in
17:15 71.6 °F 50.9 °F 29.98 in NNW 2.0 mph 10.0 mph 48 % 0.00 in
17:20 71.8 °F 51.1 °F 29.97 in NW 10.0 mph 11.0 mph 48 % 0.00 in
17:25 72.0 °F 51.3 °F 29.97 in NW 5.0 mph 11.0 mph 48 % 0.00 in
17:30 72.0 °F 51.3 °F 29.98 in West 5.0 mph 14.0 mph 48 % 0.00 in
17:35 72.0 °F 51.3 °F 29.97 in NNW 4.0 mph 14.0 mph 48 % 0.00 in
17:40 71.8 °F 50.5 °F 29.97 in NNE 12.0 mph 14.0 mph 47 % 0.00 in
17:45 72.0 °F 50.7 °F 29.97 in NW 9.0 mph 15.0 mph 47 % 0.00 in
17:50 71.6 °F 50.9 °F 29.97 in North 8.0 mph 15.0 mph 48 % 0.00 in
17:55 71.8 °F 51.1 °F 29.97 in NNW 8.0 mph 15.0 mph 48 % 0.00 in
18:00 71.8 °F 50.5 °F 29.97 in NW 4.0 mph 13.0 mph 47 % 0.00 in
18:05 71.8 °F 50.5 °F 29.96 in NNW 3.0 mph 13.0 mph 47 % 0.00 in
18:10 71.8 °F 50.5 °F 29.96 in WNW 3.0 mph 10.0 mph 47 % 0.00 in
18:15 71.8 °F 50.5 °F 29.96 in NW 6.0 mph 10.0 mph 47 % 0.00 in
18:20 71.6 °F 50.4 °F 29.96 in West 3.0 mph 12.0 mph 47 % 0.00 in
18:25 71.6 °F 50.4 °F 29.97 in NW 3.0 mph 12.0 mph 47 % 0.00 in
18:30 71.6 °F 50.9 °F 29.97 in North 6.0 mph 12.0 mph 48 % 0.00 in
18:35 71.6 °F 50.9 °F 29.97 in NW 4.0 mph 11.0 mph 48 % 0.00 in
18:40 71.6 °F 50.9 °F 29.96 in NW 4.0 mph 11.0 mph 48 % 0.00 in
18:45 71.8 °F 51.1 °F 29.96 in NW 4.0 mph 11.0 mph 48 % 0.00 in
18:50 71.6 °F 50.9 °F 29.96 in NNW 2.0 mph 9.0 mph 48 % 0.00 in
18:55 71.2 °F 51.1 °F 29.96 in NNW 2.0 mph 9.0 mph 49 % 0.00 in
19:00 71.4 °F 51.3 °F 29.96 in North 4.0 mph 9.0 mph 49 % 0.00 in
19:05 71.2 °F 51.1 °F 29.97 in NW 5.0 mph 9.0 mph 49 % 0.00 in
19:10 70.9 °F 51.3 °F 29.97 in NW 2.0 mph 10.0 mph 50 % 0.00 in
19:15 70.5 °F 50.9 °F 29.97 in NW 4.0 mph 10.0 mph 50 % 0.00 in
19:20 70.2 °F 51.3 °F 29.97 in NNW 2.0 mph 10.0 mph 51 % 0.00 in
19:25 69.8 °F 50.9 °F 29.97 in NNW 7.0 mph 9.0 mph 51 % 0.00 in
19:30 69.4 °F 50.5 °F 29.97 in NW 1.0 mph 9.0 mph 51 % 0.00 in
19:35 69.4 °F 51.1 °F 29.97 in NW 3.0 mph 9.0 mph 52 % 0.00 in
19:40 69.1 °F 51.3 °F 29.97 in NW 3.0 mph 8.0 mph 53 % 0.00 in
19:45 68.7 °F 50.9 °F 29.97 in WNW 6.0 mph 9.0 mph 53 % 0.00 in
19:50 68.4 °F 51.1 °F 29.97 in NW 2.0 mph 9.0 mph 54 % 0.00 in
19:55 68.2 °F 50.9 °F 29.97 in North 3.0 mph 9.0 mph 54 % 0.00 in
20:00 67.8 °F 50.5 °F 29.97 in North 3.0 mph 7.0 mph 54 % 0.00 in
20:05 67.6 °F 50.4 °F 29.98 in NW 1.0 mph 6.0 mph 54 % 0.00 in
20:10 67.5 °F 50.7 °F 29.98 in NW 3.0 mph 6.0 mph 55 % 0.00 in
20:15 67.3 °F 50.5 °F 29.97 in Calm   6.0 mph 55 % 0.00 in
20:20 66.7 °F 50.5 °F 29.98 in NW 2.0 mph 4.0 mph 56 % 0.00 in
20:25 66.6 °F 50.9 °F 29.98 in NW 1.0 mph 4.0 mph 57 % 0.00 in
20:30 66.4 °F 50.7 °F 29.98 in NNE 1.0 mph 4.0 mph 57 % 0.00 in
20:35 66.0 °F 50.9 °F 29.98 in Calm   4.0 mph 58 % 0.00 in
20:40 65.7 °F 50.5 °F 29.98 in WNW 1.0 mph 3.0 mph 58 % 0.00 in
20:45 65.5 °F 50.7 °F 29.99 in Calm   2.0 mph 59 % 0.00 in
20:50 65.1 °F 50.4 °F 29.99 in Calm   2.0 mph 59 % 0.00 in
20:55 64.6 °F 50.0 °F 29.99 in Calm   1.0 mph 59 % 0.00 in
21:00 64.0 °F 49.8 °F 29.99 in Calm   1.0 mph 60 % 0.00 in
21:05 63.7 °F 49.5 °F 29.99 in Calm   1.0 mph 60 % 0.00 in
21:10 63.1 °F 49.8 °F 29.99 in Calm   1.0 mph 62 % 0.00 in
21:15 62.8 °F 49.6 °F 29.99 in Calm   1.0 mph 62 % 0.00 in
21:20 62.6 °F 50.2 °F 29.99 in Calm   1.0 mph 64 % 0.00 in
21:25 63.0 °F 50.5 °F 29.99 in Calm   1.0 mph 64 % 0.00 in
21:30 63.0 °F 50.5 °F 29.99 in Calm   1.0 mph 64 % 0.00 in
21:35 62.4 °F 50.0 °F 29.99 in Calm   1.0 mph 64 % 0.00 in
21:40 61.7 °F 50.2 °F 30.00 in Calm   1.0 mph 66 % 0.00 in
21:45 61.3 °F 50.4 °F 30.00 in Calm   1.0 mph 67 % 0.00 in
21:50 61.3 °F 50.7 °F 30.00 in Calm   1.0 mph 68 % 0.00 in
21:55 61.5 °F 51.3 °F 30.00 in Calm   1.0 mph 69 % 0.00 in
22:00 61.3 °F 51.1 °F 30.00 in Calm   1.0 mph 69 % 0.00 in
22:05 61.3 °F 51.4 °F 30.00 in Calm   1.0 mph 70 % 0.00 in
22:10 61.0 °F 50.7 °F 30.00 in Calm   1.0 mph 69 % 0.00 in
22:15 60.3 °F 50.4 °F 30.00 in Calm   1.0 mph 70 % 0.00 in
22:20 60.1 °F 51.4 °F 30.00 in Calm   1.0 mph 73 % 0.00 in
22:25 59.9 °F 51.3 °F 30.00 in Calm   1.0 mph 73 % 0.00 in
22:30 59.5 °F 51.3 °F 30.00 in Calm   1.0 mph 74 % 0.00 in
22:35 59.2 °F 50.9 °F 30.00 in Calm   1.0 mph 74 % 0.00 in
22:40 58.8 °F 50.9 °F 30.00 in Calm     75 % 0.00 in
22:45 58.5 °F 51.3 °F 30.00 in Calm     77 % 0.00 in
22:50 58.3 °F 51.4 °F 30.00 in Calm     78 % 0.00 in
22:55 57.9 °F 50.7 °F 30.00 in Calm     77 % 0.00 in
23:00 57.6 °F 50.4 °F 30.00 in Calm     77 % 0.00 in
23:05 57.2 °F 50.7 °F 30.00 in Calm     79 % 0.00 in
23:10 57.2 °F 51.4 °F 29.99 in Calm   1.0 mph 81 % 0.00 in
23:15 57.4 °F 51.6 °F 29.99 in Calm   1.0 mph 81 % 0.00 in
23:20 57.4 °F 51.3 °F 29.99 in Calm   1.0 mph 80 % 0.00 in
23:25 57.4 °F 51.6 °F 29.99 in Calm     81 % 0.00 in
23:30 57.0 °F 51.3 °F 29.99 in Calm     81 % 0.00 in
23:35 56.8 °F 51.8 °F 29.99 in Calm   1.0 mph 83 % 0.00 in
23:40 56.5 °F 51.1 °F 29.99 in Calm   1.0 mph 82 % 0.00 in
23:46 56.1 °F 51.1 °F 29.99 in Calm   1.0 mph 83 % 0.00 in
23:51 55.9 °F 51.3 °F 29.99 in Calm   1.0 mph 84 % 0.00 in
23:56 56.1 °F 51.4 °F 29.99 in Calm   1.0 mph 84 % 0.00 in
Spring, Texas: Villages of Bridgestone
Compliments of Weather Underground - 2.75 mb

Script developed by  Jim McMurry - jmcmurry@mwt.net Adapted for the template by  Wim van der Kuil - Leuven-Template.eu

You find our weather info also at:

UK Metoffice

WeatherCloud

Weather Underground

Mid-South Weather Network

AWEKAS

Citizen Weather Observer Program (CWOP)

HAMweather, WeatherForYou, PWS Weather

Equipment we use:

Weather-station
Davis Vantage Vue

Weather-program
Meteohub

Weather-server
Debian 7.9 x86 (Guest)

Provider
DreamHost

Davis Vantage Vue

Meteohub

Debian 7.9 x86 (Guest)

DreamHost